Погода в Пскове

Погода в Пскове : погода сейчас, прогноз погоды и архив. Всё, что Вы хотите узнать о погоде в Пскове!

Хотите узнать прогноз погоды в Пскове? Тогда Вам сюда: Погода в Пскове

Поиск расширенной информации на нашем сайте:

Другие новости

Новости СМИ2

Главная страница сайта

Новости сайта

03.07.2017

Напоминаем, что на нашем специализированном сайте Метеоцентр.Азия вы можете получить высокодетализированные автоматические прогнозы погоды по пунктам России, СНГ и мира в авиационном формате (включающие направление и скорость ветра, видимость, явления погоды, количество и форму облачности, нижнюю и верхнюю границу облачности).


Погода в Пскове - сегодня

Время (UTC), дата Ветер
(°,м/с) 
Видим.   Явления Облачность Т
(°С)
Тd
(°С)
f(%) Тe
(°С)
Pmin
(гПа)
dP
(гПа)
Po
(мм)
O2
(г/м3)
Тmin Tmax R s Состояние
почвы
09 13.01.18 170 (Ю) 20000 м    10/10 600 м 
[Sc diur, vesp]
-7.6 -8.6 93 -7  1046.7  0.8  781  324           
12 13.01.18 тихо ()   20000 м    10/10 600 м 
[Sc diur, vesp]
-7.2 -8.6 90 -7  1045.9  -0.8  780  324           
15 13.01.18 150 (ЮВ) 20000 м    10/10 600 м 
[Sc diur, vesp]
-7.7 -9 90 -7  1045.3  -0.6  780  324           
18 13.01.18 200 (Ю) 20000 м    10/10 600 м 
[Sc diur, vesp]
-7.6 -8.9 90 -7  1045  -0.3  779  324    -7.1       
21 13.01.18 тихо ()   20000 м    10/10 600 м 
[Sc diur, vesp]
-7.9 -9.2 90 -8  1044.6  -0.5  779  324           
00 14.01.18 230 (ЮЗ) 20000 м    10/10 600 м 
[Frnb]
-8.1 -9.4 90 -8  1044.3  -0.2  779  324           
03 14.01.18 090 (В) 20000 м    10/10 600 м 
[Sc diur, vesp]
-8.3 -9.5 91 -8  1043.6  -0.7  778  324  -8.3         
06 14.01.18 100 (В) 20000 м    10/10 600 м 
[Sc diur, vesp]
-8.8 -9.8 92 -10  1043.2  -0.4  778  325  -9      <0.5  сухой снег
50-90% 
09 14.01.18 140 (ЮВ) 10 км  {снег}  10/10 600 м 
[St]
-8 -9.7 88 -10  1043  -0.2  778  324           
12 14.01.18 160 (Ю) 10 км  слаб. снег  10/10 600 м 
[St]
-8.2 -10.9 81 -10  1042.2  -0.7  777  324           
15 14.01.18 150 (ЮВ) 10 км  слаб. ливневой снег  10/10 600 м кучево-дожд. 
[Cb cap]
-9.7 -11.8 85 -11  1041.8  -0.4  777  326      0.2     
18 14.01.18 130 (ЮВ) 20000 м  {ливн. осадки, снег}  10/10 600 м 
[Sc diur, vesp]
-9.2 -10.9 87 -12  1041.1  -0.7  776  325    -7.6  0.2     
21 14.01.18 180 (Ю) 20000 м    10/10 600 м 
[Sc]
-8.8 -10.9 85 -10  1040.5  -0.6  776  324           
00 15.01.18 150 (ЮВ) 20000 м    10/10 600 м 
[Sc]
-9.3 -11.1 87 -11  1039.4  -1.1  775  324           
03 15.01.18 160 (Ю) 20000 м    10/10 600 м 
[Sc]
-10 -11.9 86 -13  1038.1  -1.3  774  325  -10.1    0.0     
06 15.01.18 150 (ЮВ) 10 км  слаб. снег  10/10 600 м 
[St]
-10.2 -12 87 -12  1036.8  -1.2  773  325  -10.3    0.3  равномерный
сухой снег
100% 
09 15.01.18 180 (Ю) 10 км  слаб. снег  10/0 средняя 
[As op]
-9.9 -12.1 84 -12  1035.9  -1  772  324           
12 15.01.18 170 (Ю) 4000 м  слаб. снег  10/0 средняя 
[As op]
-9.8 -12.3 82 -13  1033.7  -2.2  771  323           
15 15.01.18 150 (ЮВ) 4000 м  слаб. снег  10/0 средняя 
[As op]
-9.6 -12 83 -13  1031.3  -2.3  769  322      0.2     
18 15.01.18 170 (Ю) 10 км  слаб. снег  10/0 средняя 
[As op]
-9.5 -12.3 80 -12  1028.9  -2.4  767  321    -9.5  0.2     
21 15.01.18 170 (Ю) 10 км  слаб. снег  10/0 средняя 
[As op]
-9.2 -11.9 81 -12  1027.4  -2.4  766  321           
00 16.01.18 160 (Ю) 20000 м  {снег}  4/4 600 м 
[Sc]
-10.1 -12.8 81 -14  1026  -1.4  765  321           
03 16.01.18 160 (Ю) 20000 м    6/6 600 м 
[Sc]
-11.3 -13.5 84 -15  1023.8  -2.3  763  322  -11.3    0.0     
06 16.01.18 150 (ЮВ) 20000 м    ясно 
-12.1 -14.4 83 -16  1021.7  -2  762  323  -12.1    0.0  равномерный
сухой снег
100% 
09 16.01.18 150 (ЮВ) 4{10}  20000 м    ясно 
-9.7 -14.1 70 -14  1020.5  -1.2  761  319           
Время (UTC), дата Ветер
(°,м/с) 
Видим.   Явления Облачность Т
(°С)
Тd
(°С)
f(%) Тe
(°С)
Pmin
(гПа)
dP
(гПа)
Po
(мм)
O2
(г/м3)
Тmin Tmax R s Состояние
почвы

Для получения пояснительной информации подведите курсор к названию столбца.

ПОГОДА в Пскове - архив

Всё, что Вы хотите узнать о погоде в Пскове - удобно и подробно!

Выберите нужную дату (начиная с 1 января 2015* года) и нажмите кнопку "Найти".
Будут отображены архивные сводки погоды по пункту Псков, начиная с указанной даты.


Отображать данные в формате CSV (для использования в таблицах Excel)


Внимание! Наш архив погоды предназначен исключительно для личного некоммерческого использования в познавательных целях. Если Вам необходимы официальные справки о состоянии погоды (для производственных, юридических, коммерческих и т.п. целей), обращайтесь в органы Росгидромета.

*Примечание: данная дата относится к архиву по метеостанциям СССР (Россия, СНГ, Балтия).
Архив по метеостанциям Зарубежной Европы и Азии (кроме Китая) хранится 10 дней, по другим регионам земного шара (Китай, Африка, Америка, Австралия, Океания) - 1 день.

Псков - район местоположения метеостанции


Название, широта, долгота, высота метеостанции:
Псков (город) 57.8°ш. 28.5°д. 44 м над ур. моря [Российская Федерация]

Дополнительная информация

В oтличие oт бoльшинства пoгoдных сайтoв мы публикуем пoдрoбную метеoинфoрмацию в детальнoм прoфессиoнальнoм фoрмате.

Характеристики температуры и влажнoсти вoздуха измеряются на высoте 2 м в тени вдали oт зданий и деревьев.
Скoрoсть ветра измеряется на высoте 10 м (на урoвне рoста челoвека скoрoсть ветра ниже в 1.5-2 раза). Если метеoстанция нахoдится в гoрoде или в лесу, тo скoрoсть ветра занижена на 2-4 м/с пo сравнению с oткрытым местoм. Скoрoсть ветра над акватoриями крупных рек и oзёр, а также на вершинах хoлмoв на 2-5 м/с выше, чем в oбычных услoвиях.
Атмoсфернoе давление в разных тoчках местнoсти мoжет значительнo oтличаться oт давления на метеoстанции, в зависимoсти oт услoвий рельефа (при пoдъёме на 10 м давление пoнижается примернo на 1 мм рт.ст.).